Weather History for KSLK - February, 2014

Change the Weather History Date:

Wednesday, February 12, 2014

  Actual Average Record
Temperature  
Mean Temperature -3 °F 14 °F  
Max Temperature 24 °F 27 °F 57 °F (1999)
Min Temperature -30 °F 1 °F -32 °F (1979)
Degree Days  
Heating Degree Days 68 51  
Month to date heating degree days 662 618  
Since 1 July heating degree days 6168 5920  
Cooling Degree Days 0 0  
Month to date cooling degree days 0  
Year to date cooling degree days 0  
Moisture  
Dew Point -12 °F    
Average Humidity 65    
Maximum Humidity 91    
Minimum Humidity 39    
Precipitation  
Precipitation T in 0.07 in 1.00 in (1955)
Month to date precipitation 0.35 0.73  
Year to date precipitation 1.90 2.86  
Sea Level Pressure  
Sea Level Pressure 30.43 in    
Wind  
Wind Speed 3 mph (SSW)    
Max Wind Speed 21 mph    
Max Gust Speed 25 mph    
Visibility 10 miles    
Events Snow    
T = Trace of Precipitation, MM = Missing Value Source: NWS Daily Summary

Daily Weather History Graph

Daily Weather History Graph

Search for Another Location

Airport or City:

Trip Planner

Search our weather history database for the weather conditions in past years. The results will help you decide how hot, cold, wet, or windy it might be!

Date:

Astronomy

Feb. 12, 2014 Rise Set
Actual Time 7:01 AM EST 5:21 PM EST
Civil Twilight 6:30 AM EST 5:51 PM EST
Nautical Twilight 5:56 AM EST 6:25 PM EST
Astronomical Twilight 5:23 AM EST 6:59 PM EST
Moon 3:31 PM EST (2/12) 5:18 AM EST (2/12)
Length of Visible Light 11h 20m
Length of Day
10h 20m
Waxing Gibbous, 95% of the Moon is Illuminated
Feb 12
Waxing Gibbous
Feb 14
Full
Feb 22
Last Quarter
Mar 1
New
Mar 8
First Quarter

Hourly Weather History & Observations

Time (EST) Temp. Windchill Dew Point Humidity Pressure Visibility Wind Dir Wind Speed Gust Speed Precip Events Conditions
12:51 AM -18.9 °F - -24.0 °F 78% 30.50 in 10.0 mi Calm Calm - N/A   Clear
1:51 AM -20.9 °F - -26.0 °F 77% 30.51 in 10.0 mi Calm Calm - N/A   Clear
2:51 AM -24.0 °F - -29.0 °F 77% 30.52 in 10.0 mi Calm Calm - N/A   Clear
3:51 AM -25.1 °F - -29.9 °F 78% 30.52 in 10.0 mi Calm Calm - N/A   Clear
4:51 AM -26.0 °F - -31.0 °F 77% 30.53 in 10.0 mi Calm Calm - N/A   Clear
5:51 AM -26.0 °F - -32.1 °F 73% 30.53 in 10.0 mi Calm Calm - N/A   Clear
6:51 AM -29.9 °F - - N/A% 30.54 in 10.0 mi Calm Calm - N/A   Clear
7:51 AM -26.0 °F - -31.0 °F 77% 30.58 in 10.0 mi Calm Calm - N/A   Clear
8:51 AM -15.0 °F -27.4 °F -17.0 °F 91% 30.55 in 10.0 mi SW 4.6 mph - N/A   Clear
9:51 AM -2.0 °F - -7.1 °F 79% 30.53 in 10.0 mi Calm Calm - N/A   Clear
10:51 AM 7.0 °F 0.1 °F -2.0 °F 67% 30.49 in 10.0 mi WSW 3.5 mph - N/A   Clear
11:51 AM 12.9 °F - -2.0 °F 51% 30.45 in 10.0 mi Calm Calm - N/A   Clear
12:51 PM 18.0 °F - -0.9 °F 44% 30.43 in 10.0 mi Calm Calm - 0.00 in Snow Light Snow
1:51 PM 19.0 °F 11.1 °F 3.0 °F 50% 30.39 in 9.0 mi SW 5.8 mph - 0.00 in Snow Light Snow
2:51 PM 24.1 °F - 1.0 °F 37% 30.37 in 10.0 mi North - - 0.00 in   Clear
3:51 PM 21.9 °F 9.8 °F -0.9 °F 37% 30.35 in 10.0 mi SSW 12.7 mph - N/A   Clear
4:51 PM 19.9 °F 8.6 °F -2.0 °F 38% 30.33 in 10.0 mi South 10.4 mph - N/A   Clear
5:51 PM 12.9 °F 2.6 °F -0.9 °F 54% 30.33 in 10.0 mi SSW 6.9 mph - N/A   Clear
6:51 PM 12.0 °F 2.7 °F -4.0 °F 49% 30.32 in 10.0 mi SSW 5.8 mph - N/A   Clear
7:51 PM -2.0 °F - -5.1 °F 87% 30.33 in 10.0 mi Calm Calm - N/A   Clear
8:51 PM -5.1 °F -13.6 °F -9.0 °F 83% 30.32 in 10.0 mi NNE 3.5 mph - N/A   Clear
9:51 PM -7.1 °F -15.9 °F -11.0 °F 83% 30.29 in 10.0 mi NE 3.5 mph - N/A   Unknown
10:51 PM -7.1 °F - -9.9 °F 87% 30.27 in 10.0 mi Calm Calm - N/A   Clear
11:51 PM -6.0 °F - -9.9 °F 83% 30.23 in 10.0 mi Calm Calm - N/A   Clear